This is the latest recevied weather packets stored in our database for station/object N1UNH. If no packets are shown the sender has not sent any weather packets the latest 10 day(s).
| Time | Temp. | Humidity | Pressure | Rain* | Wind** | Luminosity | Snow |
|---|---|---|---|---|---|---|---|
| 1777738383 | 9.44° C | 84% | 1016.8 hPa | 0 mm | - | 97 W/m² | - |
| 1777738082 | 9.44° C | 82% | 1016.8 hPa | 0 mm | - | 115 W/m² | - |
| 1777737780 | 9.44° C | 78% | 1016.8 hPa | 0 mm | - | 108 W/m² | - |
| 1777737479 | 10° C | 83% | 1016.8 hPa | 0 mm | - | 109 W/m² | - |
| 1777737176 | 10° C | 81% | 1017 hPa | 0 mm | - | 146 W/m² | - |
| 1777736872 | 9.44° C | 85% | 1017 hPa | 0 mm | - | 199 W/m² | - |
| 1777736264 | 8.89° C | 89% | 1017 hPa | 0 mm | - | 251 W/m² | - |
| 1777735961 | 8.33° C | 88% | 1017.1 hPa | 0 mm | - | 188 W/m² | - |
| 1777735658 | 8.89° C | 87% | 1016.9 hPa | 0 mm | - | 119 W/m² | - |
| 1777735355 | 8.89° C | 83% | 1017.3 hPa | 0 mm | - | 91 W/m² | - |
| 1777735053 | 8.89° C | 84% | 1017.2 hPa | 0 mm | - | 85 W/m² | - |
| 1777734750 | 9.44° C | 86% | 1017.1 hPa | 0 mm | - | 130 W/m² | - |
| 1777734447 | 9.44° C | 79% | 1017.1 hPa | 0 mm | - | 219 W/m² | - |
| 1777734144 | 9.44° C | 85% | 1017.2 hPa | 0 mm | - | 197 W/m² | - |
| 1777733840 | 9.44° C | 86% | 1017.1 hPa | 0 mm | - | 217 W/m² | - |
| 1777733233 | 8.89° C | 84% | 1017 hPa | 0 mm | - | 240 W/m² | - |
| 1777732930 | 8.89° C | 85% | 1017.1 hPa | 0 mm | - | 266 W/m² | - |
| 1777732626 | 8.33° C | 86% | 1017.2 hPa | 0 mm | - | 269 W/m² | - |
| 1777732324 | 8.33° C | 88% | 1017.3 hPa | 0 mm | - | 233 W/m² | - |
| 1777732021 | 8.33° C | 91% | 1017.2 hPa | 0 mm | - | 177 W/m² | - |
| 1777731717 | 8.33° C | 91% | 1017.4 hPa | 0 mm | - | 187 W/m² | - |
| 1777731415 | 7.78° C | 91% | 1017.5 hPa | 0 mm | - | 175 W/m² | - |
| 1777731113 | 7.78° C | 89% | 1017.4 hPa | 0 mm | - | 175 W/m² | - |
| 1777730811 | 7.78° C | 89% | 1017.6 hPa | 0 mm | - | 110 W/m² | - |
| 1777730507 | 7.78° C | 92% | 1017.5 hPa | 0 mm | - | 180 W/m² | - |
* Rain latest hour (hover to see other rain measurements)
** Current wind speed in m/s (hover to see current wind gust speed)